Location: Betz
(49.1556°N, 2.9558°E)
Time: 12:17:08
(UTC+00:00)

SL-8 R/B - Pass Details

Date: 18 September 2019
Orbit: 657 x 667 km, 48.4° (Epoch: 21 October)

Event Time Altitude Azimuth Distance (km) Brightness Sun altitude
Rises 18:59:38 0° 248° (WSW) 2,979 8.0 -11.1°
Reaches altitude 10° 19:01:58 10° 245° (WSW) 2,070 7.0 -11.5°
Maximum altitude 19:06:43 66° 164° (SSE) 720 3.7 -12.2°
Enters shadow 19:10:24 17° 85° (E) 1,676 5.2 -12.8°
